Tracking 19709 objects as of 17-Jun-2019
HD Live streaming from Space Station
objects crossing your sky now

OPS 9346 (IDSCS 25)

Track OPS 9346 (IDSCS 25) now!
OPS 9346 (IDSCS 25) is classified as:


NORAD ID: 3289
Int'l Code: 1968-050F
Perigee: 33,753.0 km
Apogee: 34,116.5 km
Inclination: 2.0 °
Period: 1,342.2 minutes
Semi major axis: 40305 km
RCS: 0.3981 m2 (medium)
Launch date: June 13, 1968
Source: United States (US)
Launch site: AIR FORCE EASTERN TEST RANGE (AFETR)
aabbcc
Your satellite tracking list
Your tracking list is empty




NASA's NSSDC Master Catalog

Two Line Element Set (TLE):
1  3289U 68050F   19167.21348071 -.00000120 +00000-0 +00000-0 0  9995
2  3289 002.0431 055.8965 0045093 080.0050 120.8855 01.07288179023205
Source of the keplerian elements: AFSPC